Regional Weather Roundup
Issued by NWS

Home | Current Version | Previous Version | Text Only | Print | Product List | Glossary On
Versions: 1 2 3 4 5 6 7 8 9 10 11 12 13 14 15 16 17 18 19 20 21 22 23 24 25 26 27 28 29 30 31 32 33 34 35 36 37 38 39 40 41 42 43 44 45 46 47 48 49 50
000
ASUS44 KFWD 211215
RWRTX
NORTH TEXAS HOURLY WEATHER ROUNDUP
NATIONAL WEATHER SERVICE FORT WORTH TX
700 AM CDT MON APR 21 2014

NOTE: "FAIR" INDICATES FEW OR NO CLOUDS BELOW 12,000 FEET WITH NO
SIGNIFICANT WEATHER AND/OR OBSTRUCTIONS TO VISIBILITY.

TXZ118-119-211300-
DALLAS/FORT WORTH METROPLEX

CITY           SKY/WX    TMP DP  RH WIND       PRES   REMARKS
DFW AIRPORT    CLOUDY    63  60  90 S12       29.99F
6HR MIN TEMP:  63; 6HR MAX TEMP:  63; 6HR PCP: TRACE;

DALLAS LOVE    MOCLDY    64  59  83 S13       30.00F
6HR MIN TEMP:  62; 6HR MAX TEMP:  64; 6HR PCP: TRACE;

FTW MEACHAM    CLOUDY    64  60  87 S10       29.98F
6HR MIN TEMP:  63; 6HR MAX TEMP:  64; 6HR PCP:  0.01;

DAL-EXECUTIVE  CLOUDY    64  60  87 S6        30.01S
6HR MIN TEMP:  62; 6HR MAX TEMP:  64; 6HR PCP:  0.03;

FTW-ALLIANCE   CLOUDY    63  60  90 S9        29.98S
6HR MIN TEMP:  61; 6HR MAX TEMP:  63; 6HR PCP:  0.01;

FTW-NAS-JRB    CLOUDY    66  58  75 S10       30.03S
6HR MIN TEMP:  65; 6HR MAX TEMP:  66;

FTW-SPINKS     CLOUDY    63  61  94 S8        30.02S
ARLINGTON      CLOUDY    64  59  83 S9        30.01R
6HR MIN TEMP:  63; 6HR MAX TEMP:  64; 6HR PCP:  0.01;

GRAND PRAIRIE  CLOUDY    64  59  82 S9        30.03S
ADDISON        MOCLDY    63  59  88 SE10      30.01F
MESQUITE       CLOUDY    63  59  88 SE6       30.03R
LANCASTER      CLOUDY    63  58  85 S5        30.03S
6HR MIN TEMP:  61; 6HR MAX TEMP:  63;

$$

TXZ091>094-102>105-117-120-121-131>134-211300-
NORTH CENTRAL TEXAS

CITY           SKY/WX    TMP DP  RH WIND       PRES   REMARKS
SHRMAN/DENISON MOCLDY    63  57  82 SE9       30.00R
6HR MIN TEMP:  62; 6HR MAX TEMP:  64; 6HR PCP:  0.05;

GAINESVILLE    CLOUDY    61  59  94 SE8       30.00R
6HR MIN TEMP:  60; 6HR MAX TEMP:  62; 6HR PCP:  0.12;

BOWIE          CLOUDY    61  61  99 SE7       29.97S FOG
6HR MIN TEMP:  61; 6HR MAX TEMP:  61; 6HR PCP:  0.08;

BRIDGEPORT     CLOUDY    62  62  97 S7        29.99S FOG
6HR MIN TEMP:  61; 6HR MAX TEMP:  63;

DECATUR        CLOUDY    62  61  97 SE10      29.98S
6HR MIN TEMP:  60; 6HR MAX TEMP:  62; 6HR PCP:  0.01;

DENTON         CLOUDY    62  60  93 S12       29.98S
6HR MIN TEMP:  61; 6HR MAX TEMP:  63;

MCKINNEY       MOCLDY    62  59  90 SE10      29.99F
6HR MIN TEMP:  62; 6HR MAX TEMP:  63; 6HR PCP:  0.03;

GREENVILLE     DRIZZLE   61  59  94 SE5       30.02F
ROCKWALL       CLOUDY    62  60  95 SE9       30.00F
6HR MIN TEMP:  61; 6HR MAX TEMP:  62; 6HR PCP:  0.07;

TERRELL        CLOUDY    64  61  90 CALM      30.04R
6HR MIN TEMP:  62; 6HR MAX TEMP:  64; 6HR PCP:  0.01;

WAXAHACHIE     CLOUDY    63  59  88 S8        30.03S
6HR MIN TEMP:  61; 6HR MAX TEMP:  63;

CLEBURNE       CLOUDY    63  63 100 S8        30.04R
GRANBURY       CLOUDY    64  60  85 SE9       30.01R
6HR MIN TEMP:  64; 6HR MAX TEMP:  66;

$$

TXZ083>090-098>101-113>116-127>130-139>142-154-155-211300-
WESTERN NORTH TEXAS

CITY           SKY/WX    TMP DP  RH WIND       PRES   REMARKS
WICHITA FALLS  CLOUDY    63  61  93 S13       29.94R FOG
6HR MIN TEMP:  61; 6HR MAX TEMP:  63; 6HR PCP:  0.34;

WF-KICKAPOO    CLOUDY    63  63  98 SE9       29.96R FOG
6HR MIN TEMP:  62; 6HR MAX TEMP:  64;

VERNON         CLOUDY    66  63  90 S8        29.94R
6HR MIN TEMP:  63; 6HR MAX TEMP:  67;

ABILENE        CLEAR     64  60  87 SW8       29.98S
6HR MIN TEMP:  64; 6HR MAX TEMP:  67;

ABILENE-DYESS  PTCLDY    64  60  87 SW6       29.98R
6HR MIN TEMP:  64; 6HR MAX TEMP:  66;

BRECKENRIDGE   CLOUDY    66  64  92 S6        29.96S
6HR MIN TEMP:  66; 6HR MAX TEMP:  68;

GRAHAM         CLOUDY    64  62  93 S3        29.95R
6HR MIN TEMP:  64; 6HR MAX TEMP:  64;

MINERAL WELLS  CLOUDY    62  60  93 SE12      29.97S
6HR MIN TEMP:  62; 6HR MAX TEMP:  63;

STEPHENVILLE   MOCLDY    62  58  87 S7        30.02S
6HR MIN TEMP:  62; 6HR MAX TEMP:  65;

COMANCHE       CLOUDY    64  63  97 S7        30.00S
6HR MIN TEMP:  62; 6HR MAX TEMP:  65;

BROWNWOOD      CLOUDY    64  63  94 S7        30.02R
COLEMAN        CLOUDY    64  62  92 SW7       30.01S
6HR MIN TEMP:  64; 6HR MAX TEMP:  64;

BRADY          CLOUDY    66  64  94 SW10      30.02R
$$

TXZ143>147-156>162-174-175-211300-
CENTRAL TEXAS

CITY           SKY/WX    TMP DP  RH WIND       PRES   REMARKS
WACO           CLOUDY    65  61  87 S13       30.03R
6HR MIN TEMP:  62; 6HR MAX TEMP:  68;

WACO-TSTC      CLOUDY    64  61  88 S9        30.03
WACO-MCGREGOR  CLOUDY    63  57  82 S8        30.05R
6HR MIN TEMP:  61; 6HR MAX TEMP:  64;

HILLSBORO      CLOUDY    64  59  84 S12       30.03R
6HR MIN TEMP:  64; 6HR MAX TEMP:  66;

CORSICANA      CLOUDY    64  59  83 S9        30.05R
6HR MIN TEMP:  64; 6HR MAX TEMP:  68; 6HR PCP: TRACE;

MEXIA          CLOUDY    63  60  93 SE3       30.04R
6HR MIN TEMP:  60; 6HR MAX TEMP:  68;

HEARNE         CLOUDY    65  63  91 SE6       30.05S
6HR MIN TEMP:  64; 6HR MAX TEMP:  68;

CAMERON        CLOUDY    65  62  90 S6        30.04R
6HR MIN TEMP:  64; 6HR MAX TEMP:  68;

TEMPLE         CLOUDY    63  57  82 S9        30.06R
6HR MIN TEMP:  61; 6HR MAX TEMP:  63;

KILLEEN        CLOUDY    61  59  94 S3        30.03R
KILLEEN-SKYLRK CLEAR     63  55  77 CALM      30.01R
FORT HOOD      CLOUDY    63  58  83 CALM      30.03R
6HR MIN TEMP:  61; 6HR MAX TEMP:  66;

GATESVILLE     CLOUDY    61  59  94 CALM      30.05R
HAMILTON       CLOUDY    63  62  97 SE8       30.03R
6HR MIN TEMP:  61; 6HR MAX TEMP:  64;

LAMPASAS       CLOUDY    63  61  93 CALM      30.03R
6HR MIN TEMP:  58; 6HR MAX TEMP:  63;

$$

TXZ095>097-106>112-122>126-135>138-148>153-164>167-211300-
EAST TEXAS

CITY           SKY/WX    TMP DP  RH WIND       PRES   REMARKS
PARIS          MOCLDY    63  57  82 S9        30.01F
6HR MIN TEMP:  61; 6HR MAX TEMP:  63; 6HR PCP:  0.08;

SULPHUR SPRNGS CLOUDY    62  61  96 SE9       30.04F
6HR MIN TEMP:  61; 6HR MAX TEMP:  64; 6HR PCP:  0.13;

CLARKSVILLE    CLOUDY    63  62  97 CALM      30.02R
6HR MIN TEMP:  62; 6HR MAX TEMP:  64; 6HR PCP:  0.10;

MOUNT PLEASANT CLOUDY    60  60  99 S5        30.05R
6HR MIN TEMP:  60; 6HR MAX TEMP:  65; 6HR PCP:  0.04;

GILMER         CLEAR     61  61 100 CALM      30.06R FOG
MINEOLA        CLOUDY    61  61 100 SE3       30.04R FOG
TYLER          PTCLDY    62  55  77 S6        30.04S
6HR MIN TEMP:  62; 6HR MAX TEMP:  70; 6HR PCP: TRACE;

LONGVIEW       PTCLDY    59  56  89 SE6       30.04S
6HR MIN TEMP:  59; 6HR MAX TEMP:  70; 6HR PCP:  0.01;

MARSHALL       PTCLDY    56  54  92 CALM      30.08R
6HR MIN TEMP:  56; 6HR MAX TEMP:  66;

ATHENS         CLEAR     61  55  82 S5        30.04R
PALESTINE      CLOUDY    64  57  80 S3        30.08R
JACKSONVILLE   CLOUDY    60  55  82 S6        30.08R
HENDERSON      CLOUDY    60  53  78 CALM      30.07S
6HR MIN TEMP:  60; 6HR MAX TEMP:  67;

NACOGDOCHES    CLOUDY    55  52  88 CALM      30.08R
6HR MIN TEMP:  54; 6HR MAX TEMP:  64;

LUFKIN         PTCLDY    63  58  83 S6        30.07R
6HR MIN TEMP:  60; 6HR MAX TEMP:  67;

$$

SUPPLEMENTAL OBSERVATIONS (CENTRAL)

CITY           SKY/WX    TMP DP  RH WIND       PRES   REMARKS
LAKE TEXOMA      N/A     61  59  94 SE5         N/A
CADDO GRASSLND   N/A     63  59  88 S8          N/A
PAT MAYSE LAKE   N/A     64  57  77 E6          N/A
GREENVILLE       N/A     61  57  88 S3          N/A
CEDAR HILL       N/A     63  59  88 S7          N/A
ATHENS           N/A     63  55  77 S8          N/A
PALESTINE        N/A     63  59  88 S5          N/A
LAKE LIMESTONE   N/A     63  57  82 SE3         N/A



USA.gov is the U.S. government's official web portal to all federal, state and local government web resources and services.